Погода в Кузьмищево

Россия / Калужская область     54°45′54″N   37°12′00″E
темп.,
°C
ветер,
м/с
пор.,
м/с
влажн.,
%
обл.,
%
осадки,
мм/ч
давл.,
гПа
погр.,
м
27 октября, ср
ср2700:00+3юз61570100 0.0 1021443
03:00+3юз61470100 0.0 1020422
06:00+2юз61471100 0.0 1018396
09:00+3юз71570100 0.0 1017518
12:00+6юз71564100 0.0 1016709
15:00+5зюз71372100 0.0 1015760
18:00+5з61384100 0.0 1016668
21:00+5зюз51190100 0.0 1016483
28 октября, чт
чт2800:00+6зюз51187100 0.0 1016426
03:00+4юз41191100 0.0 1015272
06:00+4ююз51294100 0.0 1013368
09:00+6юз61493100 1.6 1012639
12:00+7зюз61394100 0.6 1011549
15:00+9з51295100 0.8 1012589
18:00+9сз51190100 0.1 1014410
21:00+7с61088100 0.3 1018722
29 октября, пт
пт2900:00+6ссв5888100 0.1 1022579
03:00+5св3781100 0.1 1025421
06:00+5ссв2285100 0.0 102796
09:00+6юв1268100 0.0 102979
12:00+7юз236236 0.0 1030917
15:00+8юз35625 0.0 1030854
18:00+5юз36805 0.0 1030116
21:00+4юз38875 0.0 1031158
30 октября, сб
сб3000:00+3юз3991100 0.0 1031177
03:00+4юз41091100 0.0 1031209
06:00+3юз389328 0.0 1032159
09:00+4юз49875 0.0 1032215
12:00+8юз58665 0.0 1031402
15:00+9юз48665 0.0 1031488
18:00+6ююз39855 0.0 1031167
21:00+5ююз411905 0.0 1031241
31 октября, вс
вс3100:00+5юз4139128 0.0 1031276
03:00+4юз4129148 0.0 1031268
06:00+3ююз412915 0.0 1030248
09:00+4ююз512855 0.0 1030304
12:00+9юз611675 0.0 1029464
15:00+10ююз510625 0.0 1028555
18:00+6ююз411715 0.0 1028257
21:00+5ююз412730 0.0 1028249